{"data":{"norad_id":58607,"epoch":"2026-09-20T22:52:15.902976Z","epoch_age_seconds":110324,"freshness":"FRESH","line1":"1 58607U 23200U   26263.95296184  .00000597  00000+0  31221-4 0  9999","line2":"2 58607  43.0004 146.1183 0001352 271.7277  88.3419 15.27579952153472","mean_motion":15.27579952,"eccentricity":0.0001352,"inclination_deg":43.0004,"raan_deg":146.1183,"arg_perigee_deg":271.7277,"mean_anomaly_deg":88.3419,"bstar":3.1221e-5,"rev_number":15347,"period_min":94.266751675725,"perigee_km":482.12160738931,"apogee_km":483.97687214854,"semimajor_km":6861.1862397689,"source":"CELESTRAK","updated_at":"2026-09-21T09:00:33.920506Z"}}